CST,Max TemperatureF,Mean TemperatureF,Min TemperatureF,Max Dew PointF,MeanDew PointF,Min DewpointF,Max Humidity, Mean Humidity, Min Humidity, Max Sea Level PressureIn, Mean Sea Level PressureIn, Min Sea Level PressureIn, Max VisibilityMiles, Mean VisibilityMiles, Min VisibilityMiles, Max Wind SpeedMPH, Mean Wind SpeedMPH, Max Gust SpeedMPH,PrecipitationIn, CloudCover, Events, WindDirDegrees
2010-11-1,57,46,34,35,32,28,79,59,38,30.40,30.32,30.25,10,10,10,9,4,10,0.00,1,,125
2010-11-2,63,46,28,35,30,25,85,58,30,30.40,30.32,30.19,10,10,9,16,6,20,0.00,1,,177
2010-11-3,63,52,41,38,30,22,82,53,23,30.34,30.26,30.19,10,10,10,38,17,47,0.00,0,,315
2010-11-4,51,40,28,31,26,21,75,54,32,30.35,30.30,30.27,10,10,10,30,13,39,0.00,0,,314
2010-11-5,54,38,21,27,22,18,84,56,28,30.32,30.24,30.16,10,10,10,17,6,22,0.00,0,,220
2010-11-6,68,53,37,31,27,21,54,39,24,30.14,30.06,29.99,10,10,10,22,13,26,0.00,0,,184
2010-11-7,75,59,43,35,32,28,62,42,21,30.02,29.89,29.74,10,10,10,22,12,29,0.00,0,,182
2010-11-8,80,61,41,37,34,28,65,42,18,29.73,29.69,29.66,10,10,10,21,9,24,0.00,0,,198
2010-11-9,70,54,37,47,41,34,92,66,40,29.72,29.63,29.53,10,10,10,26,12,35,0.00,0,,138
2010-11-10,50,37,24,38,34,23,92,74,56,30.20,29.88,29.72,10,10,4,16,9,21,T,6,Rain,310
2010-11-11,53,37,20,37,29,18,92,69,46,30.46,30.37,30.21,10,10,2,20,4,25,0.10,3,Rain,34
2010-11-12,40,39,38,36,35,33,92,89,85,30.43,30.35,30.25,10,10,8,20,10,25,0.07,7,Rain,27
2010-11-13,46,37,28,32,27,20,92,65,37,30.22,30.12,30.03,10,10,10,20,11,23,0.00,0,,306
2010-11-14,47,37,27,28,26,23,85,64,42,30.02,29.90,29.77,10,10,10,18,9,22,0.00,2,,255
2010-11-15,52,39,25,38,31,23,92,71,50,29.83,29.78,29.72,10,10,10,13,5,16,0.02,4,,273
2010-11-16,49,38,26,34,31,27,92,71,50,29.90,29.76,29.65,10,10,7,13,5,16,0.00,3,,311
2010-11-17,42,32,22,31,29,21,92,78,64,30.41,30.22,29.93,10,9,7,16,8,20,0.00,6,,341
2010-11-18,45,31,17,32,27,17,96,78,60,30.42,30.18,29.87,10,10,10,26,12,36,0.00,0,,162
2010-11-19,42,35,28,32,25,17,89,69,48,30.21,30.04,29.83,10,10,10,22,12,31,0.00,1,,347
2010-11-20,30,27,24,29,18,12,100,78,55,30.23,30.10,29.89,10,8,3,15,9,20,0.00,7,,71
2010-11-21,31,29,27,30,27,23,100,93,85,29.93,29.83,29.75,10,6,2,17,9,21,0.00,8,,336
2010-11-22,29,22,15,27,22,10,92,85,77,30.19,29.92,29.74,10,8,2,22,10,25,0.01,7,,329
2010-11-23,29,19,8,17,11,4,84,69,53,30.32,30.20,29.94,10,10,10,20,8,26,0.00,0,,108
2010-11-24,35,24,12,32,20,3,91,79,66,29.99,29.75,29.61,10,7,2,31,15,38,0.01,6,Rain-Snow,338
2010-11-25,27,14,1,7,2,-4,79,56,33,30.08,30.04,30.01,10,10,10,31,11,37,0.00,0,,270
2010-11-26,47,31,15,22,15,4,74,54,34,30.11,30.05,29.99,10,10,10,26,13,36,0.00,0,,274
2010-11-27,54,34,13,22,18,11,88,58,28,30.13,30.01,29.80,10,10,10,21,8,26,0.00,0,,168
2010-11-28,55,44,32,24,21,19,59,43,26,29.78,29.57,29.43,10,10,10,30,14,39,0.00,0,,150
2010-11-29,45,33,21,34,21,14,88,73,57,29.91,29.68,29.47,10,5,0,37,20,45,0.15,8,Fog-Snow,323
2010-11-30,24,22,19,16,13,10,77,69,60,30.16,30.03,29.85,10,6,2,39,21,49,T,8,Snow,315